[keps] orb07256.2l.amsat
Ray Hoad
r.hoad at att.net
Thu Sep 13 19:20:42 PDT 2007
SB KEPS @ AMSAT $ORB07256.N
2Line Orbital Elements 07256.AMSAT
HR AMSAT ORBITAL ELEMENTS FOR AMATEUR SATELLITES IN NASA FORMAT
FROM WA5QGD FORT WORTH,TX September 13, 2007
Send Subscribe/unsubscribe to KEPS at
http://www.amsat.org/mailman/listinfo/keps
BID: ORB07256.N
DECODE 2-LINE ELSETS WITH THE FOLLOWING KEY:
1 AAAAAU 00 0 0 BBBBB.BBBBBBBB .CCCCCCCC 00000-0 00000-0 0 DDDZ
2 AAAAA EEE.EEEE FFF.FFFF GGGGGGG HHH.HHHH III.IIII JJ.JJJJJJJJKKKKKZ
KEY: A-CATALOGNUM B-EPOCHTIME C-DECAY D-ELSETNUM E-INCLINATION F-RAAN
G-ECCENTRICITY H-ARGPERIGEE I-MNANOM J-MNMOTION K-ORBITNUM Z-CHECKSUM
TO ALL RADIO AMATEURS BT
AO-07
1 07530U 74089B 07255.68925116 -.00000028 00000-0 10000-3 0 09760
2 07530 101.5084 291.1020 0012201 084.8921 275.3533 12.53572397502086
AO-10
1 14129U 83058B 07254.51196106 -.00000117 00000-0 10000-3 0 4234
2 14129 026.1603 256.9509 6062531 055.2477 347.9262 02.05870191182340
UO-11
1 14781U 84021B 07255.83662694 .00000084 00000-0 18524-4 0 04709
2 14781 098.1872 280.2136 0008008 247.5358 112.5043 14.79577951262696
RS-15
1 23439U 94085A 07255.96503892 -.00000039 00000-0 10000-3 0 00794
2 23439 064.8130 224.9637 0156819 175.0851 185.1652 11.27552794523590
FO-29
1 24278U 96046B 07256.79887779 .00000064 00000-0 10217-3 0 5923
2 24278 098.5592 204.5803 0350220 213.5802 144.2704 13.52931942546880
SO-33
1 25509U 98061B 07255.92105338 .00000176 00000-0 23819-4 0 00201
2 25509 031.4281 089.7028 0354781 114.4514 249.3539 14.28175041463803
AO-40
1 26609U 00072B 07256.72046862 -.00000137 00000-0 10000-3 0 9364
2 26609 006.4825 120.9209 7955119 003.3720 000.1686 01.25586373 31550
VO-52
1 28650U 05017B 07256.32630407 -.00000041 00000-0 14980-5 0 7260
2 28650 097.8256 325.0410 0026585 328.7681 031.1924 14.81355526127466
PO-63
1 29712U 07001D 07256.75808087 .00000486 00000-0 71369-4 0 7279
2 29712 097.9143 314.6606 0013754 197.4078 162.6656 14.79822266 36433
AO-16
1 20439U 90005D 07255.58560014 .00000018 00000-0 22100-4 0 01293
2 20439 098.2032 245.3546 0010139 290.5785 069.4306 14.31769877921051
LO-19
1 20442U 90005G 07255.88891510 .00000066 00000-0 39830-4 0 00557
2 20442 098.1849 254.8620 0011053 287.3133 072.6803 14.32010063921241
AO-27
1 22825U 93061C 07255.84903795 -.00000002 00000-0 15687-4 0 07770
2 22825 098.3402 221.9502 0008859 009.6184 350.5160 14.29217181728010
IO-26
1 22826U 93061D 07255.46128104 -.00000000 00000-0 16106-4 0 04796
2 22826 098.3341 222.6130 0009389 007.0204 353.1105 14.29463819728044
PO-28
1 22829U 93061G 07256.49393747 .00000080 00000-0 47055-4 0 7528
2 22829 098.3230 224.7554 0009569 337.4888 022.5872 14.30166105728436
GO-32
1 25397U 98043D 07256.25580072 -.00000117 00000-0 -33617-4 0 4001
2 25397 098.4072 299.5806 0001207 017.1200 343.0021 14.23129916476680
MO-46
1 26548U 00057D 07256.37869184 .00000094 00000-0 29174-4 0 8958
2 26548 064.5560 269.8274 0004640 186.6266 173.4771 14.83172654376614
NO-44
1 26931U 01043C 07256.59512055 -.00000122 00000-0 -15518-4 0 6843
2 26931 067.0507 279.7542 0006878 251.1138 108.9237 14.29494381310733
SO-50
1 27607U 02058C 07255.26311855 .00000005 00000-0 22804-4 0 04087
2 27607 064.5581 180.6490 0064713 337.6795 022.1499 14.71284702253937
CO-55
1 27844U 03031E 07255.65662367 .00000035 00000-0 36745-4 0 01193
2 27844 098.7212 262.7693 0009322 195.0590 165.0295 14.20530704217897
CO-57
1 27848U 03031J 07255.54752809 .00000042 00000-0 39896-4 0 00788
2 27848 098.7200 261.8266 0009167 199.6494 160.4326 14.20347556217855
AO-51
1 28375U 04025K 07255.59800407 -.00000000 00000-0 13018-4 0 09110
2 28375 098.1062 290.3837 0083358 278.3163 080.8588 14.40579069168290
CO-56
1 28941U 06005C 07255.69982411 .00011241 25124-5 11418-3 0 05648
2 28941 098.1209 326.7131 0213370 322.6322 036.0209 15.43121932086919
HO-59
1 29484U 06041F 07256.68974924 .00023949 28129-5 14888-3 0 6787
2 29484 098.2721 320.3057 0183256 307.1041 051.3508 15.57765121 54820
NO-60
1 29661U 06055C 07150.05824307 .13324117 12618-4 10400-3 0 3000
2 29661 051.6186 176.5045 0007204 190.7749 188.7342 16.52052832 25544
NO-61
1 29664U 06055F 07256.72622471 .00042311 12067-4 96271-4 0 4685
2 29664 051.6312 343.6754 0011130 339.4835 020.5724 15.98083528 42285
CP4
1 31122U 07012F 07255.73070230 .00000551 00000-0 13192-3 0 01363
2 31122 098.0793 326.1492 0087122 113.7883 247.2446 14.55032226021580
CP3
1 31128U 07012M 07255.70970155 -.00000046 00000-0 00000-0 0 01283
2 31128 098.0767 325.3924 0104099 115.3452 245.8574 14.51863596021529
LIBERT
1 31129U 07012N 07255.76969784 .00000339 00000-0 89029-4 0 03633
2 31129 098.0761 325.4625 0103225 115.2325 245.9609 14.51956576021511
NOAA-10
1 16969U 86073A 07255.64841487 .00000083 00000-0 52196-4 0 08094
2 16969 098.7443 272.8786 0011544 275.1034 084.8834 14.27333796091702
NOAA-11
1 19531U 88089A 07255.32746152 -.00000254 00000-0 -10870-3 0 08385
2 19531 098.8106 343.4028 0011953 139.4069 220.7999 14.14849713978473
NOAA-12
1 21263U 91032A 07255.54839079 -.00000105 00000-0 -25542-4 0 03380
2 21263 098.7583 252.6660 0011899 210.8782 149.1724 14.25492475848695
MET-3/5
1 21655U 91056A 07255.91722057 .00000051 00000-0 10000-3 0 03862
2 21655 082.5567 300.9706 0013362 355.4730 004.6269 13.17012312772959
MET-2/21
1 22782U 93055A 07255.72555987 .00000023 00000-0 71120-5 0 09317
2 22782 082.5522 332.4756 0022461 355.2294 004.8659 13.83616722708626
OKEAN-4
1 23317U 94066A 07256.73270437 .00000244 00000-0 27355-4 0 3703
2 23317 082.5390 213.9191 0021174 325.3447 034.6408 14.82532764697171
NOAA-14
1 23455U 94089A 07255.76907738 -.00000286 00000-0 -12723-3 0 08158
2 23455 098.9823 322.3902 0009095 207.5793 152.4889 14.13723704655013
SICH-1
1 23657U 95046A 07256.69914512 .00000018 00000-0 -63948-6 0 1701
2 23657 082.5323 354.9077 0022770 315.7274 044.2133 14.81510993649131
NOAA-15
1 25338U 98030A 07255.89186485 .00000034 00000-0 32802-4 0 01571
2 25338 098.5372 250.1282 0011381 129.7500 230.4689 14.24664040485173
RESURS
1 25394U 98043A 07255.74962634 .00000003 00000-0 19262-4 0 07352
2 25394 098.4318 306.7779 0001194 336.7584 023.3541 14.24144927476810
FENGYUN1
1 25730U 99025A 07255.92558560 .00000586 00000-0 37175-3 0 02258
2 25730 098.6948 236.4925 0017502 240.0604 119.8826 14.07603819429813
OKEAN-0
1 25860U 99039A 07255.63020897 .00000042 00000-0 13641-4 0 01565
2 25860 097.7359 253.8132 0001911 078.6351 281.5068 14.73472706438375
NOAA-16
1 26536U 00055A 07255.60441575 -.00000210 00000-0 -88485-4 0 05957
2 26536 099.1254 234.1057 0009709 290.2583 069.7532 14.12450001359445
NOAA-17
1 27453U 02032A 07255.79362363 .00000229 00000-0 11838-3 0 05977
2 27453 098.5731 322.9652 0011607 194.5738 165.5108 14.23908697271181
NOAA-18
1 28654U 05018A 07255.82350562 .00000347 00000-0 21664-3 0 01212
2 28654 098.8323 195.6534 0014825 024.1515 336.0369 14.11094402119211
HUBBLE
1 20580U 90037B 07256.61820723 .00000336 00000-0 13214-4 0 9608
2 20580 028.4688 333.4601 0003546 315.8332 044.1975 15.00278185753255
UARS
1 21701U 91063B 07256.59005410 .00002998 00000-0 54390-4 0 1674
2 21701 056.9763 290.1037 0091288 007.1458 353.0875 15.48836512879440
PO-34
1 25520U 98064B 07254.35640156 .00000413 00000-0 10631-4 0 08238
2 25520 028.4599 252.0024 0005719 116.6844 243.4336 15.17046199490629
ISS
1 25544U 98067A 07256.83809659 .00011766 00000-0 75365-4 0 9731
2 25544 051.6372 006.4417 0009025 005.7420 139.0948 15.76787601504766
OO-38
1 26063U 00004C 07255.62405399 -.00000018 00000-0 14370-4 0 00099
2 26063 100.2292 274.4055 0036542 274.1572 085.5422 14.35814614399598
UWE-1
1 28892U 05043C 07255.34644328 -.00000049 00000-0 -50884-6 0 08483
2 28892 098.1192 150.2118 0016741 197.2568 162.8056 14.59537934099923
CO-58
1 28895U 05043F 07255.66517273 .00000097 00000-0 29963-4 0 08257
2 28895 098.1202 150.7692 0017237 196.6540 163.4107 14.59582804099856
NCUBE2
1 28897U 05043H 07256.27856318 .00000086 00000-0 27643-4 0 3518
2 28897 098.1191 151.3183 0016615 196.2321 163.8349 14.59747065 92227
NMARS
1 29662U 06055D 07126.39603970 .07031946 12599-4 11450-3 0 2632
2 29662 051.6121 302.3682 0004459 252.1654 110.7411 16.47981436 21652
FCAL
1 29667U 06055J 07256.71231781 .00017475 11250-4 63355-4 0 3151
2 29667 051.6330 349.0061 0013354 336.3252 023.7144 15.91285209 42080
FALCON
1 30776U 07006E 07256.75066074 .00000197 00000-0 17506-4 0 1397
2 30776 035.4341 035.7601 0000297 194.2640 165.8068 15.02762921 28381
MAST
1 31126U 07012K 07256.72671387 .00000344 00000-0 88342-4 0 1323
2 31126 098.0764 326.7209 0095675 111.2143 249.9276 14.53363899 21714
CAPE1
1 31130U 07012P 07255.77672855 .00000003 00000-0 11368-4 0 01149
2 31130 098.0753 325.4573 0104005 115.1564 246.0462 14.51883148021329
/EX
More information about the Keps
mailing list